DW6016 Weather Reports


time (UTC)temp
C
wind
direction
speed
KPH
gust
KPH
rain 1hr
cm
rain 24hr
cm
rain mn
cm
humidity
%
barometer
mb
20260507042156 13 328 0.0 1.6 0.00 0.00 0.00 79 1022.2
20260507041654 14 310 1.6 3.2 0.00 0.00 0.00 79 1022.2
20260507041150 14 308 1.6 1.6 0.00 0.00 0.00 79 1022.2
20260507040648 14 290 0.0 0.0 0.00 0.00 0.00 79 1022.3
20260507040144 14 267 3.2 3.2 0.00 0.00 0.00 79 1022.3
20260507035639 14 268 1.6 3.2 0.00 0.00 0.00 79 1021.9
20260507035136 14 300 1.6 3.2 0.00 0.00 0.00 78 1021.9
20260507034633 15 308 3.2 3.2 0.00 0.00 0.00 78 1021.8
20260507034131 15 296 0.0 0.0 0.00 0.00 0.00 78 1021.9
20260507033629 15 151 3.2 3.2 0.00 0.00 0.00 78 1021.8
20260507033126 15 296 1.6 3.2 0.00 0.00 0.00 78 1021.8
20260507032623 15 332 0.0 0.0 0.00 0.00 0.00 79 1021.6
20260507032119 15 40 0.0 1.6 0.00 0.00 0.00 79 1021.3
20260507031616 15 297 0.0 0.0 0.00 0.00 0.00 79 1021.3
20260507031112 15 325 1.6 1.6 0.00 0.00 0.00 78 1021.4
20260507030609 15 299 0.0 1.6 0.00 0.00 0.00 78 1021.3
20260507030107 15 298 1.6 1.6 0.00 0.00 0.00 79 1021.2
20260507025604 15 301 0.0 0.0 0.00 0.00 0.00 79 1021.1
20260507025101 15 290 0.0 0.0 0.00 0.00 0.00 80 1021.1
20260507024559 15 296 0.0 0.0 0.00 0.00 0.00 79 1020.9
20260507024056 15 310 0.0 0.0 0.00 0.00 0.00 78 1021.0
20260507023551 16 286 0.0 1.6 0.00 0.00 0.00 77 1021.0
20260507023049 16 299 0.0 0.0 0.00 0.00 0.00 77 1021.1
20260507022546 16 324 1.6 1.6 0.00 0.00 0.00 77 1021.1
20260507022041 16 298 0.0 0.0 0.00 0.00 0.00 76 1021.1
20260507021537 16 293 0.0 0.0 0.00 0.00 0.00 75 1021.0
20260507021034 17 290 1.6 1.6 0.00 0.00 0.00 74 1021.2
20260507020531 17 257 0.0 0.0 0.00 0.00 0.00 74 1021.4
20260507020028 17 323 0.0 1.6 0.00 0.00 0.00 74 1021.1
20260507015526 17 300 1.6 3.2 0.00 0.00 0.00 75 1020.8
20260507015023 17 290 0.0 0.0 0.00 0.00 0.00 74 1021.1
20260507014520 17 302 0.0 1.6 0.00 0.00 0.00 75 1021.0
20260507014015 17 297 3.2 4.8 0.00 0.00 0.00 74 1021.2
20260507013512 17 346 1.6 1.6 0.00 0.00 0.00 74 1020.9
20260507013010 17 292 1.6 1.6 0.00 0.00 0.00 73 1021.2
20260507012507 17 293 4.8 8.0 0.00 0.00 0.00 73 1020.9
20260507012003 17 294 1.6 3.2 0.00 0.00 0.00 72 1021.1
20260507011500 17 322 1.6 1.6 0.00 0.00 0.00 73 1021.0
20260507010956 18 302 1.6 1.6 0.00 0.00 0.00 72 1021.0
20260507010450 18 309 1.6 1.6 0.00 0.00 0.00 72 1020.9
20260507005948 18 264 3.2 4.8 0.00 0.00 0.00 72 1020.9
20260507005445 18 241 3.2 4.8 0.00 0.00 0.00 72 1020.9
20260507004941 18 280 1.6 1.6 0.00 0.00 0.00 71 1020.9
20260507004438 19 297 1.6 3.2 0.00 0.00 0.00 72 1020.8
20260507003936 19 301 1.6 1.6 0.00 0.00 0.00 72 1020.6
20260507003431 19 282 1.6 3.2 0.00 0.00 0.00 71 1020.6
20260507002926 20 293 1.6 1.6 0.00 0.00 0.00 71 1020.7
20260507002422 20 127 3.2 8.0 0.00 0.00 0.00 71 1020.6
20260507001920 20 299 1.6 3.2 0.00 0.00 0.00 70 1020.8
20260507001416 20 304 1.6 1.6 0.00 0.00 0.00 70 1020.6
20260507000914 20 289 0.0 1.6 0.00 0.00 0.00 71 1020.6
20260507000409 20 301 1.6 3.2 0.00 0.00 0.00 69 1020.5
20260506235905 20 312 3.2 3.2 0.00 0.00 0.00 68 1020.8
20260506235403 20 306 0.0 0.0 0.00 0.00 0.00 69 1020.6
20260506234858 20 298 0.0 1.6 0.00 0.00 0.00 67 1020.5
20260506234356 20 302 3.2 3.2 0.00 0.00 0.00 67 1020.5
20260506233853 20 100 1.6 3.2 0.00 0.00 0.00 66 1020.7
20260506233349 20 21 1.6 3.2 0.00 0.00 0.00 67 1020.8
20260506232846 20 304 0.0 1.6 0.00 0.00 0.00 67 1020.7
20260506232342 20 315 0.0 1.6 0.00 0.00 0.00 67 1020.5
20260506231838 20 313 0.0 0.0 0.00 0.00 0.00 69 1020.5
20260506231336 20 295 1.6 1.6 0.00 0.00 0.00 69 1020.5
20260506230833 20 307 3.2 3.2 0.00 0.00 0.00 67 1021.0
20260506230330 20 309 0.0 0.0 0.00 0.00 0.00 71 1021.0
20260506225826 19 1 1.6 1.6 0.00 0.00 0.00 68 1021.0
20260506225324 20 255 1.6 1.6 0.00 0.00 0.00 68 1021.0
20260506224821 20 302 1.6 1.6 0.00 0.00 0.00 71 1021.0
20260506224318 20 188 0.0 1.6 0.00 0.00 0.00 68 1021.0
20260506223814 20 307 1.6 3.2 0.00 0.00 0.00 68 1021.1
20260506223309 19 312 0.0 1.6 0.00 0.00 0.00 68 1021.2
20260506222807 19 321 0.0 0.0 0.00 0.00 0.00 69 1021.2
20260506222305 19 150 3.2 4.8 0.00 0.00 0.00 69 1021.2
20260506221800 19 336 1.6 1.6 0.00 0.00 0.00 70 1021.1
20260506221258 18 305 0.0 1.6 0.00 0.00 0.00 72 1021.2
20260506220755 19 301 3.2 3.2 0.00 0.00 0.00 71 1021.3
20260506220249 19 310 0.0 1.6 0.00 0.00 0.00 73 1021.5
20260506215747 19 304 1.6 1.6 0.00 0.00 0.00 72 1021.3
20260506215243 20 308 0.0 0.0 0.00 0.00 0.00 71 1021.2
20260506214739 20 309 0.0 1.6 0.00 0.00 0.00 73 1021.2
20260506214236 19 306 1.6 1.6 0.00 0.00 0.00 71 1021.0
20260506213735 18 351 1.6 1.6 0.00 0.00 0.00 72 1021.2
20260506213231 18 344 0.0 1.6 0.00 0.00 0.00 73 1021.4
20260506212729 18 302 1.6 1.6 0.00 0.00 0.00 73 1021.5
20260506212224 18 337 1.6 1.6 0.00 0.00 0.00 73 1021.5
20260506211719 18 358 0.0 0.0 0.00 0.00 0.00 76 1021.6
20260506211216 18 24 0.0 1.6 0.00 0.00 0.00 75 1021.9
20260506210713 18 217 1.6 3.2 0.00 0.00 0.00 75 1021.6
20260506210210 17 299 0.0 1.6 0.00 0.00 0.00 75 1021.6
20260506205707 18 306 0.0 0.0 0.00 0.00 0.00 77 1022.0
20260506205202 18 232 1.6 3.2 0.00 0.00 0.00 73 1021.9
20260506204659 18 340 0.0 1.6 0.00 0.00 0.00 74 1021.8
20260506204156 18 299 0.0 0.0 0.00 0.00 0.00 72 1021.8
20260506203655 18 334 1.6 1.6 0.00 0.00 0.00 74 1021.8
20260506203151 18 330 0.0 1.6 0.00 0.00 0.00 77 1021.8
20260506202649 18 92 3.2 3.2 0.00 0.00 0.00 75 1021.8
20260506202145 18 313 0.0 1.6 0.00 0.00 0.00 76 1021.8
20260506201642 18 313 4.8 4.8 0.00 0.00 0.00 73 1021.8
20260506201138 19 310 0.0 0.0 0.00 0.00 0.00 73 1021.9
20260506200635 18 310 0.0 0.0 0.00 0.00 0.00 74 1021.8
20260506200132 18 305 0.0 0.0 0.00 0.00 0.00 75 1021.9
20260506195629 17 300 0.0 0.0 0.00 0.00 0.00 77 1021.9
20260506195125 18 307 1.6 1.6 0.00 0.00 0.00 76 1022.1
20260506194623 17 302 0.0 1.6 0.00 0.00 0.00 76 1022.1
20260506194119 17 316 0.0 0.0 0.00 0.00 0.00 77 1022.2
20260506193617 17 300 1.6 3.2 0.00 0.00 0.00 78 1022.2
20260506193114 17 302 0.0 0.0 0.00 0.00 0.00 79 1022.3
20260506192611 17 310 1.6 3.2 0.00 0.00 0.00 78 1022.1
20260506192106 17 304 0.0 0.0 0.00 0.00 0.00 78 1022.2
20260506191603 16 310 1.6 1.6 0.00 0.00 0.00 79 1022.0
20260506191059 16 326 0.0 0.0 0.00 0.00 0.00 81 1022.0
20260506190557 16 324 0.0 0.0 0.00 0.00 0.00 79 1022.1
20260506190053 16 316 1.6 3.2 0.00 0.00 0.00 82 1022.2
20260506185551 16 344 1.6 1.6 0.00 0.00 0.00 81 1022.1
20260506185047 16 0 0.0 0.0 0.00 0.00 0.00 81 1022.0
20260506184545 16 297 0.0 1.6 0.00 0.00 0.00 82 1022.1
20260506184042 16 349 1.6 1.6 0.00 0.00 0.00 81 1022.1
20260506183537 16 300 0.0 0.0 0.00 0.00 0.00 81 1022.0
20260506183034 16 309 1.6 1.6 0.00 0.00 0.00 83 1022.0
20260506182532 16 318 4.8 4.8 0.00 0.00 0.00 82 1022.0
20260506182029 16 302 0.0 0.0 0.00 0.00 0.00 83 1022.1
20260506181527 16 290 0.0 1.6 0.00 0.00 0.00 83 1022.0
20260506181023 16 310 0.0 0.0 0.00 0.00 0.00 83 1022.0
20260506180520 15 306 0.0 0.0 0.00 0.00 0.00 84 1022.2
20260506180016 15 325 1.6 1.6 0.00 0.00 0.00 85 1022.0
20260506175513 15 331 4.8 4.8 0.00 0.00 0.00 85 1022.2
20260506175009 15 314 0.0 1.6 0.00 0.00 0.00 85 1021.8
20260506174508 15 307 1.6 3.2 0.00 0.00 0.00 85 1022.0
20260506174004 15 303 1.6 3.2 0.00 0.00 0.00 84 1021.9
20260506173502 15 312 1.6 1.6 0.00 0.00 0.00 85 1021.9
20260506172958 15 318 0.0 0.0 0.00 0.00 0.00 86 1021.8
20260506172456 15 317 0.0 0.0 0.00 0.00 0.00 85 1021.9
20260506171952 15 314 0.0 0.0 0.00 0.00 0.00 84 1021.9
20260506171449 15 309 1.6 1.6 0.00 0.00 0.00 85 1022.0
20260506170947 15 307 0.0 0.0 0.00 0.00 0.00 85 1021.8
20260506170443 14 300 0.0 0.0 0.00 0.00 0.00 86 1021.9
20260506165936 14 305 0.0 1.6 0.00 0.00 0.00 86 1022.0
20260506165435 15 309 1.6 1.6 0.00 0.00 0.00 85 1022.0
20260506164930 15 303 0.0 0.0 0.00 0.00 0.00 85 1021.8
20260506164427 15 301 0.0 0.0 0.00 0.00 0.00 85 1021.9
20260506163926 15 311 1.6 1.6 0.00 0.00 0.00 85 1021.8
20260506163425 15 313 0.0 0.0 0.00 0.00 0.00 85 1021.9
20260506162915 15 310 0.0 0.0 0.00 0.00 0.00 84 1021.8
20260506162413 15 308 1.6 1.6 0.00 0.00 0.00 84 1021.5
20260506161910 14 299 0.0 0.0 0.00 0.00 0.00 85 1021.5
20260506161408 14 325 0.0 1.6 0.00 0.00 0.00 85 1021.8
20260506160905 14 313 0.0 0.0 0.00 0.00 0.00 84 1021.8
20260506160402 14 326 0.0 0.0 0.00 0.00 0.00 85 1021.2
20260506155900 15 304 0.0 0.0 0.00 0.00 0.00 84 1021.3
20260506155357 15 311 0.0 0.0 0.00 0.00 0.00 84 1021.3
20260506153519 13 278 1.6 1.6 0.00 0.00 0.00 88 1021.3
20260506153017 13 5 1.6 1.6 0.00 0.00 0.00 88 1022.0
20260506152513 13 304 0.0 1.6 0.00 0.00 0.00 88 1021.8
20260506152012 13 328 0.0 1.6 0.00 0.00 0.00 89 1021.9
20260506151509 13 309 0.0 0.0 0.00 0.00 0.00 89 1021.9
20260506151006 13 307 0.0 1.6 0.00 0.00 0.00 88 1021.9
20260506150502 13 308 0.0 0.0 0.00 0.00 0.00 88 1021.8
20260506145959 13 316 0.0 0.0 0.00 0.00 0.00 88 1021.8
20260506145455 13 313 0.0 0.0 0.00 0.00 0.00 88 1021.5
20260506144953 13 293 1.6 1.6 0.00 0.00 0.00 88 1021.4
20260506144450 13 306 0.0 0.0 0.00 0.00 0.00 89 1021.8
20260506143948 13 308 0.0 0.0 0.00 0.00 0.00 89 1021.6
20260506143444 13 291 0.0 0.0 0.00 0.00 0.00 89 1021.1
20260506142943 13 292 0.0 0.0 0.00 0.00 0.00 89 1021.3
20260506142441 13 306 1.6 1.6 0.00 0.00 0.00 88 1021.1
20260506141939 13 354 1.6 1.6 0.00 0.00 0.00 88 1020.9
20260506141436 13 311 0.0 0.0 0.00 0.00 0.00 89 1020.8
20260506140935 13 310 0.0 0.0 0.00 0.00 0.00 89 1020.8
20260506140431 13 310 0.0 0.0 0.00 0.00 0.00 89 1021.1
20260506135928 13 318 0.0 0.0 0.00 0.00 0.00 90 1020.8
20260506135425 13 318 0.0 0.0 0.00 0.00 0.00 90 1020.9
20260506134922 13 318 0.0 0.0 0.00 0.00 0.00 90 1020.7
20260506134417 13 317 0.0 0.0 0.00 0.00 0.00 90 1020.9
20260506133915 13 317 0.0 0.0 0.00 0.00 0.00 90 1020.5
20260506133411 13 317 0.0 0.0 0.00 0.00 0.00 90 1020.5
20260506132908 13 317 0.0 0.0 0.00 0.00 0.00 90 1020.6
20260506132405 13 318 0.0 0.0 0.00 0.00 0.00 90 1020.7
20260506131904 13 318 1.6 1.6 0.00 0.00 0.00 90 1020.7
20260506131359 13 316 0.0 0.0 0.00 0.00 0.00 91 1020.5
20260506130856 13 304 0.0 0.0 0.00 0.00 0.00 90 1020.5
20260506130352 13 304 0.0 0.0 0.00 0.00 0.00 90 1020.5
20260506125851 13 304 0.0 0.0 0.00 0.00 0.00 90 1020.4
20260506125349 13 304 0.0 0.0 0.00 0.00 0.00 90 1020.4
20260506124847 13 303 0.0 0.0 0.00 0.00 0.00 90 1020.4
20260506124343 13 305 0.0 0.0 0.00 0.00 0.00 90 1020.2
20260506123841 13 318 0.0 0.0 0.00 0.00 0.00 90 1020.3
20260506123339 13 301 0.0 0.0 0.00 0.00 0.00 90 1020.4
20260506122836 13 301 0.0 0.0 0.00 0.00 0.00 90 1020.2
20260506122333 13 302 0.0 0.0 0.00 0.00 0.00 89 1020.5
20260506121831 13 303 0.0 0.0 0.00 0.00 0.00 89 1020.2
20260506121328 13 300 0.0 0.0 0.00 0.00 0.00 89 1020.5
20260506120825 13 298 0.0 0.0 0.00 0.00 0.00 89 1020.3
20260506120323 13 303 0.0 0.0 0.00 0.00 0.00 89 1020.4
20260506115820 13 301 0.0 0.0 0.00 0.00 0.00 89 1020.1
20260506115318 13 301 0.0 0.0 0.00 0.00 0.00 89 1020.0
20260506114816 13 304 0.0 0.0 0.00 0.00 0.00 88 1019.9
20260506114314 13 323 1.6 1.6 0.00 0.00 0.00 88 1019.9
20260506113812 13 317 0.0 0.0 0.00 0.00 0.00 88 1019.8
20260506113309 13 299 0.0 1.6 0.00 0.00 0.00 88 1019.9
20260506112805 13 318 0.0 0.0 0.00 0.00 0.00 88 1020.0
20260506112305 13 306 0.0 0.0 0.00 0.00 0.00 88 1020.0
20260506111800 13 306 0.0 0.0 0.00 0.00 0.00 87 1019.8
20260506111258 13 299 0.0 1.6 0.00 0.00 0.00 87 1019.8
20260506110755 13 305 0.0 0.0 0.00 0.00 0.00 87 1019.9
20260506110252 13 307 0.0 0.0 0.00 0.00 0.00 87 1019.7
20260506105749 13 292 0.0 0.0 0.00 0.00 0.00 87 1019.4
20260506105246 13 309 0.0 0.0 0.00 0.00 0.00 87 1019.6
20260506104743 13 311 0.0 0.0 0.00 0.00 0.00 87 1019.3
20260506104241 13 283 0.0 1.6 0.00 0.00 0.00 87 1019.3
20260506103738 13 297 0.0 0.0 0.00 0.00 0.00 87 1019.1
20260506103235 13 312 0.0 0.0 0.00 0.00 0.00 87 1018.9
20260506102733 13 299 0.0 0.0 0.00 0.00 0.00 87 1019.3
20260506102231 13 311 0.0 0.0 0.00 0.00 0.00 87 1019.1
20260506101727 13 309 0.0 0.0 0.00 0.00 0.00 87 1018.9
20260506101224 13 307 0.0 0.0 0.00 0.00 0.00 87 1018.8
20260506100722 13 311 0.0 0.0 0.00 0.00 0.00 86 1019.0
20260506100220 13 300 0.0 0.0 0.00 0.00 0.00 87 1018.9
20260506095718 13 294 0.0 1.6 0.00 0.00 0.00 87 1019.0
20260506095215 13 303 0.0 0.0 0.00 0.00 0.00 87 1018.9
20260506094712 13 302 0.0 0.0 0.00 0.00 0.00 86 1018.6
20260506094210 14 299 0.0 0.0 0.00 0.00 0.00 86 1018.8
20260506093708 14 302 0.0 0.0 0.00 0.00 0.00 86 1018.8
20260506093205 14 316 0.0 0.0 0.00 0.00 0.00 86 1018.9
20260506092703 14 317 0.0 0.0 0.00 0.00 0.00 86 1018.9
20260506092200 14 298 0.0 0.0 0.00 0.00 0.00 86 1018.7
20260506091658 14 309 0.0 1.6 0.00 0.00 0.00 86 1018.7
20260506091155 14 301 0.0 0.0 0.00 0.00 0.00 86 1018.7
20260506090653 14 297 0.0 0.0 0.00 0.00 0.00 86 1018.6
20260506090149 14 302 0.0 0.0 0.00 0.00 0.00 86 1018.7
20260506085646 14 306 0.0 0.0 0.00 0.00 0.00 86 1018.7
20260506085142 15 300 0.0 0.0 0.00 0.00 0.00 86 1018.6
20260506084639 15 307 0.0 0.0 0.00 0.00 0.00 86 1018.8
20260506084136 15 301 0.0 0.0 0.00 0.00 0.00 86 1018.5
20260506083632 15 301 0.0 0.0 0.00 0.00 0.00 85 1018.7
20260506083130 15 308 0.0 0.0 0.00 0.00 0.00 85 1018.6
20260506082627 15 296 0.0 0.0 0.00 0.00 0.00 85 1018.6
20260506082122 15 304 0.0 0.0 0.00 0.00 0.00 85 1018.6
20260506081621 15 319 0.0 0.0 0.00 0.00 0.00 85 1018.9
20260506081118 15 312 0.0 0.0 0.00 0.00 0.00 86 1018.6
20260506080616 15 300 0.0 0.0 0.00 0.00 0.00 86 1018.6
20260506080112 15 300 0.0 0.0 0.00 0.00 0.00 86 1018.4
20260506073056 15 313 0.0 0.0 0.00 0.00 0.00 90 1018.0
20260506072552 15 309 0.0 0.0 0.00 0.00 0.00 91 1017.9
20260506072051 15 309 0.0 0.0 0.00 0.00 0.00 91 1018.2
20260506071548 15 308 0.0 0.0 0.00 0.00 0.00 91 1018.2
20260506071045 15 309 0.0 0.0 0.00 0.00 0.00 91 1018.1
20260506070542 15 309 0.0 0.0 0.00 0.00 0.00 91 1018.2
20260506062016 15 309 0.0 0.0 0.00 0.00 0.00 90 1017.9
20260506061512 15 309 0.0 0.0 0.00 0.00 0.00 90 1018.0
20260506061010 15 309 0.0 0.0 0.00 0.00 0.00 90 1018.0
20260506060508 15 309 0.0 0.0 0.00 0.00 0.00 90 1017.9
20260506050937 14 309 0.0 0.0 0.00 0.00 0.00 90 1017.7
20260506050435 14 309 0.0 0.0 0.00 0.00 0.00 91 1017.7
20260506044925 13 309 0.0 0.0 0.00 0.00 0.00 93 1017.7
20260506044424 13 309 0.0 0.0 0.00 0.00 0.00 93 1017.4
20260506043920 13 309 0.0 0.0 0.00 0.00 0.00 93 1017.5
20260506043417 13 309 0.0 0.0 0.00 0.00 0.00 94 1017.3
20260506042915 13 309 0.0 0.0 0.00 0.00 0.00 94 1017.3